Location: Newark
(42.1667°N, 14.5667°E)
Time: 14:39:49
(UTC+00:00)

Envisat - Pass Details

Date: 02 February 2020
Orbit: 764 x 766 km, 98.1° (Epoch: 28 February)

Event Time Altitude Azimuth Distance (km) Brightness Sun altitude
Rises 17:29:25 0° 188° (S) 3,218 6.5 -13.7°
Reaches altitude 10° 17:31:53 10° 197° (SSW) 2,296 5.8 -14.2°
Maximum altitude 17:36:32 36° 263° (W) 1,200 4.7 -15.0°
Drops below altitude 10° 17:41:13 10° 330° (NNW) 2,311 5.8 -15.9°
Sets 17:43:42 0° 339° (NNW) 3,242 6.4 -16.4°
